Location: ?ernice
(48.8383°N, 14.3803°E)
Time: 16:32:11
(UTC+00:00)

BREEZE-M DEB (TANK) - Pass Details

Date: 23 May 2024
Orbit: 291 x 16914 km, 49.4° (Epoch: 12 June)

Event Time Altitude Azimuth Distance (km) Brightness Sun altitude
Exits shadow 00:10:57 34° 236° (SW) 1,020 3.7 -18.7°
Maximum altitude 00:11:55 41° 199° (SSW) 1,050 3.7 -18.7°
Drops below altitude 10° 00:20:10 10° 133° (SE) 4,475 7.2 -18.2°
Sets 00:27:18 0° 129° (SE) 7,470 8.4 -17.8°
